Torna al catalogo

FALCON 9 R/B

AttivoHEO
NORAD 60424·ROCKET BODY·🇺🇸 United States

Lanciato Aug 12, 2024 da Vandenberg Space Force Base

Loading…

Prossimi Passaggi (prossime 24 ore)

TLE

AggiornatoSource: Space-Track

Epoca: Sep 14, 2026, 01:26 UTC

1 60424U 24143C   26257.06016929  .00002705  00000-0  81583-3 0  9997
2 60424  62.4112 271.6948 4699790 310.1033  17.2857  6.06599625 46105

Traccia FALCON 9 R/B in tempo reale con AllMySat

Download on the App Store